H1 CPF 2 NER 2021 10 23 9 296 01 glonass127 H2 1106403 9127 37869 2021 10 23 0 0 0 2021 10 26 23 45 0 900 1 1 0 0 0 1 H9 10 0 59510 0.00000 0 -2330175.750 25187967.224 -3353192.548 10 0 59510 900.00000 0 -2212484.475 25426377.287 -153607.202 10 0 59510 1800.00000 0 -2056456.228 25262432.345 3048964.726 10 0 59510 2700.00000 0 -1917273.200 24697534.616 6192453.471 10 0 59510 3600.00000 0 -1848806.273 23746283.219 9216014.499 10 0 59510 4500.00000 0 -1901106.409 22435896.495 12061195.235 10 0 59510 5400.00000 0 -2118065.032 20805129.366 14673050.114 10 0 59510 6300.00000 0 -2535341.020 18902732.115 17001183.785 10 0 59510 7200.00000 0 -3178640.268 16785515.508 19000703.926 10 0 59510 8100.00000 0 -4062418.921 14516102.648 20633067.295 10 0 59510 9000.00000 0 -5189063.795 12160460.151 21866804.706 10 0 59510 9900.00000 0 -6548583.817 9785309.757 22678112.823 10 0 59510 10800.00000 0 -8118825.666 7455525.688 23051303.022 10 0 59510 11700.00000 0 -9866205.566 5231623.403 22979099.849 10 0 59510 12600.00000 0 -11746928.359 3167441.535 22462783.891 10 0 59510 13500.00000 0 -13708645.315 1308110.916 21512176.288 10 0 59510 14400.00000 0 -15692484.337 -311606.819 20145464.447 10 0 59510 15300.00000 0 -17635370.775 -1668543.254 18388871.004 10 0 59510 16200.00000 0 -19472544.836 -2751859.512 16276170.605 10 0 59510 17100.00000 0 -21140172.994 -3563264.196 13848061.631 10 0 59510 18000.00000 0 -22577945.966 -4116703.173 11151402.755 10 0 59510 18900.00000 0 -23731555.568 -4437533.246 8238326.867 10 0 59510 19800.00000 0 -24554946.784 -4561213.190 5165247.512 10 0 59510 20700.00000 0 -25012249.691 -4531566.028 1991775.701 10 0 59510 21600.00000 0 -25079308.544 -4398684.959 -1220432.851 10 0 59510 22500.00000 0 -24744741.505 -4216570.952 -4408877.973 10 0 59510 23400.00000 0 -24010483.899 -4040602.142 -7511438.969 10 0 59510 24300.00000 0 -22891789.562 -3924943.053 -10467597.500 10 0 59510 25200.00000 0 -21416687.830 -3920004.988 -13219634.198 10 0 59510 26100.00000 0 -19624917.153 -4070067.293 -15713773.868 10 0 59510 27000.00000 0 -17566378.918 -4411162.768 -17901255.101 10 0 59510 27900.00000 0 -15299175.855 -4969319.470 -19739301.587 10 0 59510 28800.00000 0 -12887317.582 -5759235.880 -21191974.418 10 0 59510 29700.00000 0 -10398190.191 -6783447.790 -22230887.376 10 0 59510 30600.00000 0 -7899896.990 -8032024.031 -22835770.234 10 0 59510 31500.00000 0 -5458583.070 -9482805.126 -22994868.380 10 0 59510 32400.00000 0 -3135856.767 -11102175.574 -22705170.818 10 0 59510 33300.00000 0 -986416.713 -12846337.316 -21972462.253 10 0 59510 34200.00000 0 944015.895 -14663030.329 -20811198.786 10 0 59510 35100.00000 0 2620373.711 -16493627.135 -19244210.522 10 0 59510 36000.00000 0 4019459.261 -18275512.102 -17302237.990 10 0 59510 36900.00000 0 5130651.455 -19944644.329 -15023312.738 10 0 59510 37800.00000 0 5956075.435 -21438195.388 -12451995.652 10 0 59510 38700.00000 0 6510231.683 -22697150.373 -9638489.280 10 0 59510 39600.00000 0 6819103.176 -23668762.589 -6637643.046 10 0 59510 40500.00000 0 6918781.533 -24308758.971 -3507872.046 10 0 59510 41400.00000 0 6853673.155 -24583204.321 -310011.669 10 0 59510 42300.00000 0 6674363.630 -24469947.258 2893868.725 10 0 59510 43200.00000 0 6435232.617 -23959588.829 6041669.525 10 0 59510 44100.00000 0 6191921.127 -23055934.951 9072458.552 10 0 59510 45000.00000 0 5998758.619 -21775915.574 11927639.793 10 0 59510 45900.00000 0 5906258.208 -20148975.592 14552071.510 10 0 59510 46800.00000 0 5958784.721 -18215964.175 16895113.400 10 0 59510 47700.00000 0 6192492.565 -16027569.542 18911584.247 10 0 59510 48600.00000 0 6633618.672 -13642364.377 20562613.533 10 0 59510 49500.00000 0 7297200.983 -11124542.362 21816372.622 10 0 59510 50400.00000 0 8186275.190 -8541438.519 22648673.290 10 0 59510 51300.00000 0 9291583.062 -5960934.188 23043423.742 10 0 59510 52200.00000 0 10591804.860 -3448851.808 22992934.526 10 0 59510 53100.00000 0 12054307.198 -1066445.008 22498069.067 10 0 59510 54000.00000 0 13636376.889 1131914.498 21568235.905 10 0 59510 54900.00000 0 15286891.629 3100759.474 20221222.094 10 0 59510 55800.00000 0 16948360.397 4805176.818 18482869.696 10 0 59510 56700.00000 0 18559251.085 6222016.831 16386599.784 10 0 59510 57600.00000 0 20056510.639 7340612.105 13972790.992 10 0 59510 58500.00000 0 21378174.219 8162975.741 11288022.338 10 0 59510 59400.00000 0 22465955.443 8703469.842 8384192.745 10 0 59510 60300.00000 0 23267709.523 8987957.103 5317532.289 10 0 59510 61200.00000 0 23739665.369 9052469.900 2147522.891 10 0 59510 62100.00000 0 23848331.496 8941451.901 -1064251.563 10 0 59510 63000.00000 0 23571993.505 8705645.676 -4255303.702 10 0 59510 63900.00000 0 22901737.494 8399715.390 -7363465.982 10 0 59510 64800.00000 0 21841953.542 8079705.638 -10328114.189 10 0 59510 65700.00000 0 20410295.305 7800445.145 -13091365.881 10 0 59510 66600.00000 0 18637095.018 7613006.986 -15599228.640 10 0 59510 67500.00000 0 16564256.649 7562335.107 -17802673.878 10 0 59510 68400.00000 0 14243672.491 7685140.053 -19658613.435 10 0 59510 69300.00000 0 11735229.192 8008155.430 -21130758.096 10 0 59510 70200.00000 0 9104487.045 8546831.113 -22190339.924 10 0 59510 71100.00000 0 6420130.365 9304520.346 -22816683.241 10 0 59510 72000.00000 0 3751296.793 10272196.396 -22997612.422 10 0 59510 72900.00000 0 1164898.261 11428711.525 -22729688.356 10 0 59510 73800.00000 0 -1276953.472 12741587.503 -22018269.119 10 0 59510 74700.00000 0 -3519308.471 14168303.920 -20877394.196 10 0 59510 75600.00000 0 -5516428.835 15658029.148 -19329495.395 10 0 59510 76500.00000 0 -7233442.417 17153719.885 -17404941.166 10 0 59510 77400.00000 0 -8647532.248 18594499.490 -15141424.534 10 0 59510 78300.00000 0 -9748614.006 19918213.702 -12583208.021 10 0 59510 79200.00000 0 -10539475.853 21064055.069 -9780241.746 10 0 59510 80100.00000 0 -11035377.892 21975144.824 -6787173.402 10 0 59510 81000.00000 0 -11263131.421 22600963.327 -3662270.798 10 0 59510 81900.00000 0 -11259700.060 22899527.019 -466279.052 10 0 59510 82800.00000 0 -11070384.622 22839221.089 2738764.293 10 0 59510 83700.00000 0 -10746670.723 22400212.020 5890732.721 10 0 59510 84600.00000 0 -10343831.687 21575382.182 8928609.306 10 0 59510 85500.00000 0 -9918388.777 20370748.875 11793657.414 10 0 59511 0.00000 0 -9525536.070 18805351.959 14430541.578 10 0 59511 900.00000 0 -9216637.706 16910615.054 16788379.534 10 0 59511 1800.00000 0 -9036902.253 14729209.937 18821703.218 10 0 59511 2700.00000 0 -9023329.813 12313468.726 20491316.896 10 0 59511 3600.00000 0 -9203017.058 9723411.354 21765034.266 10 0 59511 4500.00000 0 -9591889.702 7024468.213 22618283.678 10 0 59511 5400.00000 0 -10193914.574 4284990.674 23034571.275 10 0 59511 6300.00000 0 -11000823.946 1573650.221 23005794.323 10 0 59511 7200.00000 0 -11992364.006 -1043168.597 22532399.345 10 0 59511 8100.00000 0 -13137058.207 -3503876.097 21623382.070 10 0 59511 9000.00000 0 -14393455.383 -5753984.846 20296128.490 10 0 59511 9900.00000 0 -15711812.710 -7748122.693 18576098.864 10 0 59511 10800.00000 0 -17036145.669 -9451669.341 16496358.980 10 0 59511 11700.00000 0 -18306561.714 -10841949.108 14096965.552 10 0 59511 12600.00000 0 -19461782.052 -11908930.146 11424215.385 10 0 59511 13500.00000 0 -20441747.366 -12655400.413 8529770.555 10 0 59511 14400.00000 0 -21190198.912 -13096612.016 5469674.552 10 0 59511 15300.00000 0 -21657126.380 -13259407.602 2303276.943 10 0 59511 16200.00000 0 -21800978.536 -13180864.334 -907913.559 10 0 59511 17100.00000 0 -21590541.745 -12906511.613 -4101425.733 10 0 59511 18000.00000 0 -21006404.744 -12488197.232 -7215048.516 10 0 59511 18900.00000 0 -20041945.094 -11981692.187 -10188055.051 10 0 59511 19800.00000 0 -18703792.744 -11444136.151 -12962402.922 10 0 59511 20700.00000 0 -17011748.393 -10931433.017 -15483885.364 10 0 59511 21600.00000 0 -14998157.681 -10495708.577 -17703209.205 10 0 59511 22500.00000 0 -12706765.687 -10182940.049 -19576976.617 10 0 59511 23400.00000 0 -10191098.787 -10030860.044 -21068549.774 10 0 59511 24300.00000 0 -7512441.299 -10067225.730 -22148780.135 10 0 59511 25200.00000 0 -4737491.895 -10308528.222 -22796587.062 10 0 59511 26100.00000 0 -1935798.580 -10759198.078 -22999373.763 10 0 59511 27000.00000 0 822919.591 -11411341.216 -22753272.258 10 0 59511 27900.00000 0 3471451.245 -12245016.604 -22063212.690 10 0 59511 28800.00000 0 5947659.119 -13229043.530 -20942816.167 10 0 59511 29700.00000 0 8196826.733 -14322303.506 -19414114.062 10 0 59511 30600.00000 0 10173687.541 -15475480.559 -17507100.291 10 0 59511 31500.00000 0 11844052.579 -16633164.974 -15259126.653 10 0 59511 32400.00000 0 13185970.238 -17736230.217 -12714154.418 10 0 59511 33300.00000 0 14190371.900 -18724381.357 -9921878.222 10 0 59511 34200.00000 0 14861179.145 -19538766.387 -6936740.897 10 0 59511 35100.00000 0 15214871.300 -20124539.637 -3816859.775 10 0 59511 36000.00000 0 15279534.764 -20433269.039 -622886.563 10 0 59511 36900.00000 0 15093437.277 -20425086.125 2583176.045 10 0 59511 37800.00000 0 14703189.945 -20070489.061 5739177.467 10 0 59511 38700.00000 0 14161576.629 -19351724.026 8784018.602 10 0 59511 39600.00000 0 13525143.535 -18263688.301 11658824.448 10 0 59511 40500.00000 0 12851651.189 -16814318.558 14308068.147 10 0 59511 41400.00000 0 12197495.835 -15024449.260 16680626.012 10 0 59511 42300.00000 0 11615207.846 -12927147.901 18730744.738 10 0 59511 43200.00000 0 11151130.855 -10566555.020 20418904.084 10 0 59511 44100.00000 0 10843377.346 -7996276.819 21712560.404 10 0 59511 45000.00000 0 10720144.708 -5277396.113 22586758.603 10 0 59511 45900.00000 0 10798460.827 -2476182.326 23024602.397 10 0 59511 46800.00000 0 11083410.741 338406.857 23017575.104 10 0 59511 47700.00000 0 11567876.345 3097331.306 22565705.435 10 0 59511 48600.00000 0 12232800.437 5734076.603 21677575.157 10 0 59511 49500.00000 0 13047965.165 8187159.201 20370167.869 10 0 59511 50400.00000 0 13973254.031 10402426.944 18668560.545 10 0 59511 51300.00000 0 14960346.784 12335061.229 16605462.070 10 0 59511 52200.00000 0 15954778.512 13951198.717 14220605.502 10 0 59511 53100.00000 0 16898278.769 15229105.265 11560003.566 10 0 59511 54000.00000 0 17731294.310 16159852.856 8675079.513 10 0 59511 54900.00000 0 18395590.556 16747470.280 5621688.143 10 0 59511 55800.00000 0 18836822.597 17008559.992 2459044.454 10 0 59511 56700.00000 0 19006966.887 16971395.892 -751420.311 10 0 59511 57600.00000 0 18866509.634 16674538.749 -3947253.415 10 0 59511 58500.00000 0 18386297.383 16165026.717 -7066202.583 10 0 59511 59400.00000 0 17548968.978 15496216.955 -10047440.539 10 0 59511 60300.00000 0 16349905.400 14725369.766 -12832766.963 10 0 59511 61200.00000 0 14797654.414 13911078.234 -15367762.651 10 0 59511 62100.00000 0 12913809.322 13110653.472 -17602871.537 10 0 59511 63000.00000 0 10732344.527 12377577.878 -19494387.636 10 0 59511 63900.00000 0 8298434.232 11759136.075 -21005325.830 10 0 59511 64800.00000 0 5666802.808 11294325.695 -22106158.120 10 0 59511 65700.00000 0 2899675.650 11012138.023 -22775399.863 10 0 59511 66600.00000 0 64416.654 10930282.470 -23000033.849 10 0 59511 67500.00000 0 -2769048.227 11054409.508 -22775763.696 10 0 59511 68400.00000 0 -5530912.834 11377865.023 -22107091.753 10 0 59511 69300.00000 0 -8154165.115 11881985.998 -21007220.492 10 0 59511 70200.00000 0 -10577141.666 12536924.007 -19497780.149 10 0 59511 71100.00000 0 -12745855.727 13302960.314 -17608388.980 10 0 59511 72000.00000 0 -14616001.701 14132255.310 -15376056.019 10 0 59511 72900.00000 0 -16154553.595 14970956.552 -12844439.398 10 0 59511 73800.00000 0 -17340892.296 15761574.638 -10062976.120 10 0 59511 74700.00000 0 -18167416.793 16445525.037 -7085901.805 10 0 59511 75600.00000 0 -18639616.651 16965727.395 -3971180.846 10 0 59511 76500.00000 0 -18775605.822 17269151.948 -779368.994 10 0 59511 77400.00000 0 -18605140.498 17309205.446 2427568.484 10 0 59511 78300.00000 0 -18168165.293 17047856.399 5587459.538 10 0 59511 79200.00000 0 -17512951.387 16457410.922 8639125.481 10 0 59511 80100.00000 0 -16693906.765 15521865.642 11523555.506 10 0 59511 81000.00000 0 -15769151.748 14237782.031 14185033.649 10 0 59511 81900.00000 0 -14797961.959 12614646.666 16572197.690 10 0 59511 82800.00000 0 -13838185.586 10674703.201 18639011.087 10 0 59511 83700.00000 0 -12943742.139 8452263.415 20345631.151 10 0 59511 84600.00000 0 -12162305.892 5992525.748 21659158.699 10 0 59511 85500.00000 0 -11533269.169 3349949.604 22554256.673 10 0 59512 0.00000 0 -11086068.896 586251.525 23013627.482 10 0 59512 900.00000 0 -10838944.661 -2231897.385 23028341.328 10 0 59512 1800.00000 0 -10798179.764 -5035376.184 22598009.371 10 0 59512 2700.00000 0 -10957855.825 -7755225.042 21730799.306 10 0 59512 3600.00000 0 -11300132.224 -10325253.384 20443291.767 10 0 59512 4500.00000 0 -11796039.504 -12684541.057 18760179.422 10 0 59512 5400.00000 0 -12406755.165 -14779730.550 16713812.795 10 0 59512 6300.00000 0 -13085310.385 -16567016.438 14343599.423 10 0 59512 7200.00000 0 -13778658.072 -18013749.799 11695265.733 10 0 59512 8100.00000 0 -14430017.252 -19099590.608 8819993.638 10 0 59512 9000.00000 0 -14981396.504 -19817159.211 5773446.497 10 0 59512 9900.00000 0 -15376190.845 -20172158.282 2614701.825 10 0 59512 10800.00000 0 -15561742.422 -20182958.689 -594889.628 10 0 59512 11700.00000 0 -15491755.884 -19879665.149 -3792896.718 10 0 59512 12600.00000 0 -15128464.624 -19302699.724 -6917029.092 10 0 59512 13500.00000 0 -14444453.852 -18500962.064 -9906362.194 10 0 59512 14400.00000 0 -13424060.555 -17529643.769 -12702540.895 10 0 59512 15300.00000 0 -12064288.094 -16447789.536 -15250936.511 10 0 59512 16200.00000 0 -10375193.824 -15315709.099 -17501732.847 10 0 59512 17100.00000 0 -8379730.633 -14192350.717 -19410918.201 10 0 59512 18000.00000 0 -6113046.933 -13132748.916 -20941162.194 10 0 59512 18900.00000 0 -3621272.973 -12185656.081 -22062558.895 10 0 59512 19800.00000 0 -959843.509 -11391459.528 -22753220.618 10 0 59512 20700.00000 0 1808572.973 -10780473.305 -22999710.106 10 0 59512 21600.00000 0 4616451.525 -10371677.580 -22797302.370 10 0 59512 22500.00000 0 7393994.408 -10171958.948 -22150071.232 10 0 59512 23400.00000 0 10071812.282 -10175883.275 -21070799.323 10 0 59512 24300.00000 0 12583590.205 -10366009.556 -19580714.119 10 0 59512 25200.00000 0 14868626.601 -10713729.935 -17709056.221 10 0 59512 26100.00000 0 16874139.068 -11180598.479 -15492489.559 10 0 59512 27000.00000 0 18557241.250 -11720090.411 -12974366.458 10 0 59512 27900.00000 0 19886509.328 -12279715.338 -10203863.317 10 0 59512 28800.00000 0 20843074.364 -12803393.200 -7235005.308 10 0 59512 29700.00000 0 21421197.191 -13233990.911 -4125600.448 10 0 59512 30600.00000 0 21628304.548 -13515911.356 -936104.984 10 0 59512 31500.00000 0 21484487.916 -13597624.799 2271556.783 10 0 59512 32400.00000 0 21021489.081 -13434035.778 5435194.736 10 0 59512 33300.00000 0 20281217.663 -12988586.143 8493553.769 10 0 59512 34200.00000 0 19313865.027 -12235006.523 11387490.072 10 0 59512 35100.00000 0 18175695.221 -11158643.604 14061100.962 10 0 59512 36000.00000 0 16926606.299 -9757308.612 16462787.601 10 0 59512 36900.00000 0 15627564.157 -8041612.345 18546231.659 10 0 59512 37800.00000 0 14338015.485 -6034773.284 20271268.965 10 0 59512 38700.00000 0 13113386.612 -3771906.667 21604645.321 10 0 59512 39600.00000 0 12002770.955 -1298823.518 22520641.814 10 0 59512 40500.00000 0 11046899.652 1329611.849 23001559.299 10 0 59512 41400.00000 0 10276478.206 4051499.749 23038054.043 10 0 59512 42300.00000 0 9710957.023 6800217.171 22629318.785 10 0 59512 43200.00000 0 9357786.188 9506931.034 21783105.856 10 0 59512 44100.00000 0 9212185.230 12103211.382 20515591.358 10 0 59512 45000.00000 0 9257437.924 14523638.821 18851081.860 10 0 59512 45900.00000 0 9465700.781 16708300.310 16821567.524 10 0 59512 46800.00000 0 9799292.873 18605071.317 14466128.203 10 0 59512 47700.00000 0 10212414.637 20171590.194 11830201.725 10 0 59512 48600.00000 0 10653225.222 21376842.631 8964726.231 10 0 59512 49500.00000 0 11066192.421 22202289.418 5925171.123 10 0 59512 50400.00000 0 11394617.126 22642489.033 2770473.842 10 0 59512 51300.00000 0 11583226.016 22705187.382 -438097.979 10 0 59512 52200.00000 0 11580722.385 22410869.184 -3638137.360 10 0 59512 53100.00000 0 11342185.882 21791788.190 -6767318.347 10 0 59512 54000.00000 0 10831217.544 20890515.839 -9764621.410 10 0 59512 54900.00000 0 10021736.672 19758068.717 -12571538.684 10 0 59512 55800.00000 0 8899350.578 18451693.690 -15133233.830 10 0 59512 56700.00000 0 7462236.187 17032404.619 -17399632.083 10 0 59512 57600.00000 0 5721493.306 15562375.613 -19326417.332 10 0 59512 58500.00000 0 3700952.188 14102302.256 -20875915.018 10 0 59512 59400.00000 0 1436441.446 12708843.690 -22017842.133 10 0 59512 60300.00000 0 -1025454.225 11432254.966 -22729908.599 10 0 59512 61200.00000 0 -3629094.987 10314310.810 -22998257.511 10 0 59512 62100.00000 0 -6311874.214 9386609.116 -22817735.404 10 0 59512 63000.00000 0 -9006606.430 8669325.891 -22191987.357 10 0 59512 63900.00000 0 -11644114.093 8170473.759 -21133375.557 10 0 59512 64800.00000 0 -14155904.303 7885694.142 -19662723.711 10 0 59512 65700.00000 0 -16476822.844 7798590.258 -17808893.341 10 0 59512 66600.00000 0 -18547574.183 7881584.731 -15608201.492 10 0 59512 67500.00000 0 -20317002.147 8097263.235 -13103692.608 10 0 59512 68400.00000 0 -21744036.597 8400144.864 -10344280.208 10 0 59512 69300.00000 0 -22799225.798 8738802.087 -7383776.612 10 0 59512 70200.00000 0 -23465792.242 9058238.518 -4279830.990 10 0 59512 71100.00000 0 -23740170.007 9302422.366 -1092797.604 10 0 59512 72000.00000 0 -23632003.759 9416867.372 2115442.699 10 0 59512 72900.00000 0 -23163612.261 9351151.671 5282684.228 10 0 59512 73800.00000 0 -22368941.524 9061268.326 8347597.926 10 0 59512 74700.00000 0 -21292053.804 8511708.976 11250909.434 10 0 59512 75600.00000 0 -19985217.552 7677193.758 13936531.734 10 0 59512 76500.00000 0 -18506679.340 6543975.796 16352631.661 10 0 59512 77400.00000 0 -16918211.285 5110666.559 18452611.209 10 0 59512 78300.00000 0 -15282535.995 3388548.166 20195986.614 10 0 59512 79200.00000 0 -13660735.327 1401359.814 21549150.250 10 0 59512 80100.00000 0 -12109749.388 -815433.140 22486002.585 10 0 59512 81000.00000 0 -10680067.950 -3215858.113 22988443.750 10 0 59512 81900.00000 0 -9413708.348 -5745093.357 23046716.618 10 0 59512 82800.00000 0 -8342562.191 -8341498.584 22659595.491 10 0 59512 83700.00000 0 -7487178.238 -10938936.624 21834416.988 10 0 59512 84600.00000 0 -6856031.218 -13469292.817 20586951.943 10 0 59512 85500.00000 0 -6445306.849 -15865090.287 18941119.709 10 0 59513 0.00000 0 -6239212.449 -18062094.935 16928548.824 10 0 59513 900.00000 0 -6210801.006 -20001804.932 14587989.310 10 0 59513 1800.00000 0 -6323275.830 -21633719.362 11964588.496 10 0 59513 2700.00000 0 -6531722.160 -22917295.794 9109038.462 10 0 59513 3600.00000 0 -6785194.679 -23823511.610 6076612.178 10 0 59513 4500.00000 0 -7029073.982 -24335963.821 2926104.415 10 0 59513 5400.00000 0 -7207593.079 -24451459.445 -281302.989 10 0 59513 6300.00000 0 -7266427.034 -24180069.699 -3483229.962 10 0 59513 7200.00000 0 -7155235.240 -23544643.753 -6617317.741 10 0 59513 8100.00000 0 -6830047.027 -22579800.763 -9622454.624 10 0 59513 9000.00000 0 -6255387.216 -21330441.365 -12439982.816 10 0 59513 9900.00000 0 -5406048.894 -19849840.628 -15014861.066 10 0 59513 10800.00000 0 -4268435.345 -18197402.799 -17296758.630 10 0 59513 11700.00000 0 -2841411.397 -16436173.023 -19241057.362 10 0 59513 12600.00000 0 -1136625.546 -14630211.939 -20809740.564 10 0 59513 13500.00000 0 821713.050 -12841945.094 -21972149.792 10 0 59513 14400.00000 0 2997595.024 -11129600.205 -22705593.744 10 0 59513 15300.00000 0 5344477.714 -9544841.444 -22995796.548 10 0 59513 16200.00000 0 7807005.772 -8130701.222 -22837176.444 10 0 59513 17100.00000 0 10323113.181 -6919896.807 -22232949.493 10 0 59513 18000.00000 0 12826417.949 -5933602.427 -21195056.727 10 0 59513 18900.00000 0 15248808.434 -5180727.523 -19743916.983 10 0 59513 19800.00000 0 17523112.230 -4657729.915 -17908011.216 10 0 59513 20700.00000 0 19585735.161 -4348969.636 -15723307.721 10 0 59513 21600.00000 0 21379159.650 -4227585.885 -13232540.809 10 0 59513 22500.00000 0 22854198.017 -4256857.344 -10484358.479 10 0 59513 23400.00000 0 23971907.019 -4391985.630 -7532357.202 10 0 59513 24300.00000 0 24705084.741 -4582223.979 -4434024.004 10 0 59513 25200.00000 0 25039288.947 -4773259.005 -1249607.647 10 0 59513 26100.00000 0 24973336.406 -4909743.254 1959058.077 10 0 59513 27000.00000 0 24519264.764 -4937870.512 5129755.457 10 0 59513 27900.00000 0 23701761.062 -4807884.705 8201084.868 10 0 59513 28800.00000 0 22557083.121 -4476416.760 11113644.498 10 0 59513 29700.00000 0 21131520.869 -3908551.612 13811165.720 10 0 59513 30600.00000 0 19479463.231 -3079539.299 16241583.341 10 0 59513 31500.00000 0 17661151.940 -1976079.342 18358021.537 10 0 59513 32400.00000 0 15740215.855 -597125.424 20119678.354 10 0 59513 33300.00000 0 13781087.576 1045822.845 21492593.710 10 0 59513 34200.00000 0 11846408.485 2928953.216 22450287.996 10 0 59513 35100.00000 0 9994528.132 5016890.175 22974260.765 10 0 59513 36000.00000 0 8277199.753 7263930.586 23054341.215 10 0 59513 36900.00000 0 6737565.571 9615716.207 22688884.547 10 0 59513 37800.00000 0 5408513.730 12011276.143 21884810.587 10 0 59513 38700.00000 0 4311473.735 14385357.275 20657483.465 10 0 59513 39600.00000 0 3455699.795 16670948.664 19030433.525 10 0 59513 40500.00000 0 2838071.731 18801897.725 17034925.197 10 0 59513 41400.00000 0 2443422.205 20715511.565 14709377.055 10 0 59513 42300.00000 0 2245377.592 22355036.574 12098643.039 10 0 59513 43200.00000 0 2207678.468 23671913.599 9253166.447 10 0 59513 44100.00000 0 2285925.593 24627714.314 6228020.984 10 0 59513 45000.00000 0 2429679.084 25195676.757 3081855.833 10 0 59513 45900.00000 0 2584822.982 25361774.092 -124235.895 10 0 59513 46800.00000 0 2696095.504 25125269.652 -3327903.920 10 0 59513 47700.00000 0 2709677.420 24498732.698 -6466759.425 10 0 59513 48600.00000 0 2575727.692 23507512.102 -9479601.102 10 0 59513 49500.00000 0 2250757.022 22188688.283 -12307623.527 10 0 59513 50400.00000 0 1699736.287 20589546.272 -14895582.531 10 0 59513 51300.00000 0 897847.766 18765633.554 -17192893.091 10 0 59513 52200.00000 0 -168197.916 16778484.465 -19154636.415 10 0 59513 53100.00000 0 -1499337.533 14693107.553 -20742454.764 10 0 59513 54000.00000 0 -3083860.999 12575342.621 -21925315.096 10 0 59513 54900.00000 0 -4897661.429 10489199.815 -22680125.447 10 0 59513 55800.00000 0 -6905020.319 8494293.889 -22992191.266 10 0 59513 56700.00000 0 -9059895.483 6643482.411 -22855502.476 10 0 59513 57600.00000 0 -11307657.753 4980807.638 -22272845.731 10 0 59513 58500.00000 0 -13587203.079 3539828.522 -21255740.139 10 0 59513 59400.00000 0 -15833350.697 2342412.147 -19824198.465 10 0 59513 60300.00000 0 -17979425.924 1398033.936 -18006319.514 10 0 59513 61200.00000 0 -19959918.371 703614.040 -15837720.875 10 0 59513 62100.00000 0 -21713103.531 243894.166 -13360824.489 10 0 59513 63000.00000 0 -23183517.574 -7663.970 -10624010.389 10 0 59513 63900.00000 0 -24324181.730 -87499.454 -7680656.619 10 0 59513 64800.00000 0 -25098483.781 -40153.440 -4588085.418 10 0 59513 65700.00000 0 -25481639.023 83870.518 -1406437.376 10 0 59513 66600.00000 0 -25461671.171 230494.566 1802503.446 10 0 59513 67500.00000 0 -25039874.154 344600.623 4976509.984 10 0 59513 68400.00000 0 -24230737.695 372602.543 8054114.687 10 0 59513 69300.00000 0 -23061341.935 264947.609 10975790.876 10 0 59513 70200.00000 0 -21570248.357 -21557.707 13685090.806 10 0 59513 71100.00000 0 -19805934.742 -521694.887 16129719.582 10 0 59513 72000.00000 0 -17824840.313 -1260138.627 18262525.659 10 0 59513 72900.00000 0 -15689102.613 -2250190.303 20042390.683 10 0 59513 73800.00000 0 -13464079.645 -3492991.939 21435003.536 10 0 59513 74700.00000 0 -11215759.014 -4977253.099 22413505.545 10 0 59513 75600.00000 0 -9008159.779 -6679502.413 22958996.240 10 0 59513 76500.00000 0 -6900832.642 -8564854.133 23060891.282 10 0 59513 77400.00000 0 -4946559.933 -10588259.395 22717126.473 10 0 59513 78300.00000 0 -3189348.617 -12696192.338 21934204.184 10 0 59513 79200.00000 0 -1662797.815 -14828703.585 20727080.805 10 0 59513 80100.00000 0 -388907.458 -16921758.454 19118896.327 10 0 59513 81000.00000 0 622623.076 -18909765.361 17140549.623 10 0 59513 81900.00000 0 1374577.095 -20728191.531 14830125.538 10 0 59513 82800.00000 0 1881875.311 -22316158.709 12232182.639 10 0 59513 83700.00000 0 2170716.630 -23618911.574 9396913.090 10 0 59513 84600.00000 0 2277239.846 -24590055.818 6379188.810 10 0 59513 85500.00000 0 2245761.325 -25193471.425 3237510.795 99